Weather History for KPWK - April, 2013

Change the Weather History Date:

Thursday, April 11, 2013

  Actual Average Record
Temperature  
Mean Temperature 40 °F 46 °F  
Max Temperature 43 °F 56 °F 76 °F (2001)
Min Temperature 37 °F 36 °F 28 °F (2000)
Degree Days  
Heating Degree Days 25 19  
Month to date heating degree days 256 227  
Since 1 July heating degree days 5788 5818  
Cooling Degree Days 0 0  
Month to date cooling degree days 0 0  
Year to date cooling degree days 0 0  
Moisture  
Dew Point 40 °F    
Average Humidity 97    
Maximum Humidity 100    
Minimum Humidity 87    
Precipitation  
Precipitation 0.02 in 0.09 in 0.54 in (2007)
Month to date precipitation 0.09 0.87  
Year to date precipitation 5.87 5.70  
Sea Level Pressure  
Sea Level Pressure 29.65 in    
Wind  
Wind Speed 8 mph (ENE)    
Max Wind Speed 22 mph    
Max Gust Speed 32 mph    
Visibility 3 miles    
Events Rain    
T = Trace of Precipitation, MM = Missing Value Source: NWS Daily Summary

Daily Weather History Graph

Daily Weather History Graph

Search for Another Location

Airport or City:

Trip Planner

Search our weather history database for the weather conditions in past years. The results will help you decide how hot, cold, wet, or windy it might be!

Date:

Astronomy

Apr. 11, 2013 Rise Set
Actual Time 6:17 AM CDT 7:28 PM CDT
Civil Twilight 5:48 AM CDT 7:57 PM CDT
Nautical Twilight 5:13 AM CDT 8:32 PM CDT
Astronomical Twilight 4:37 AM CDT 9:08 PM CDT
Moon 6:47 AM CDT (4/11) 9:04 PM CDT (4/11)
Length of Visible Light 14h 09m
Length of Day
13h 11m
New Moon, 2% of the Moon is Illuminated
Apr 11
New Moon
Apr 18
First Quarter
Apr 25
Full
May 2
Last Quarter
May 9
New

Hourly Weather History & Observations

Time (CDT) Temp. Windchill Dew Point Humidity Pressure Visibility Wind Dir Wind Speed Gust Speed Precip Events Conditions
12:52 AM 37.9 °F 30.5 °F 36.0 °F 93% 29.93 in 5.0 mi ENE 11.5 mph 23.0 mph N/A Rain Light Rain
1:52 AM 37.0 °F 28.5 °F 36.0 °F 96% 29.86 in 6.0 mi ENE 13.8 mph 21.9 mph N/A Rain Light Rain
2:52 AM 37.0 °F 28.1 °F 35.1 °F 93% 29.81 in 10.0 mi ENE 15.0 mph 24.2 mph N/A   Overcast
3:52 AM 37.0 °F 31.0 °F 36.0 °F 96% 29.81 in 10.0 mi East 8.1 mph 20.7 mph N/A   Overcast
4:52 AM 37.0 °F 30.4 °F 36.0 °F 96% 29.79 in 9.0 mi ENE 9.2 mph - N/A Rain Light Rain
5:52 AM 37.0 °F 29.8 °F 36.0 °F 96% 29.75 in 8.0 mi NE 10.4 mph 19.6 mph N/A   Overcast
6:52 AM 37.9 °F 31.5 °F 37.0 °F 97% 29.75 in 2.5 mi ENE 9.2 mph - N/A Rain Light Rain
7:52 AM 39.0 °F 31.4 °F 37.9 °F 96% 29.72 in 2.5 mi ENE 12.7 mph 19.6 mph N/A   Overcast
8:48 AM 39.2 °F 32.0 °F 37.4 °F 93% 29.70 in 1.5 mi ENE 11.5 mph 21.9 mph N/A Rain Light Rain
8:52 AM 39.0 °F 31.8 °F 37.9 °F 96% 29.71 in 1.8 mi ENE 11.5 mph - N/A Rain Light Rain
10:26 AM 39.2 °F 32.5 °F 39.2 °F 100% 29.68 in 1.2 mi ENE 10.4 mph 17.3 mph N/A   Overcast
10:52 AM 39.9 °F 32.5 °F 39.0 °F 97% 29.68 in 1.5 mi ENE 12.7 mph 18.4 mph N/A   Overcast
11:52 AM 41.0 °F 36.4 °F 41.0 °F 100% 29.68 in 1.8 mi ENE 6.9 mph - 0.00 in   Overcast
12:35 PM 42.8 °F 37.0 °F 41.0 °F 93% 29.64 in 1.0 mi East 10.4 mph - 0.02 in   Overcast
12:52 PM 42.1 °F 38.4 °F 41.0 °F 96% 29.66 in 1.0 mi East 5.8 mph - 0.02 in   Overcast
1:52 PM 42.1 °F 36.6 °F 41.0 °F 96% 29.62 in 1.5 mi East 9.2 mph 17.3 mph N/A   Overcast
2:50 PM 42.8 °F 40.1 °F 42.8 °F 100% 29.61 in 0.8 mi ENE 4.6 mph - 0.00 in Rain Light Rain
2:52 PM 42.1 °F 39.2 °F 42.1 °F 100% 29.63 in 0.8 mi East 4.6 mph - 0.00 in Rain Light Rain
3:11 PM 42.8 °F 40.1 °F 42.8 °F 100% 29.61 in 1.0 mi ENE 4.6 mph - 0.00 in   Overcast
3:36 PM 42.8 °F 40.1 °F 42.8 °F 100% 29.60 in 1.8 mi NE 4.6 mph - 0.00 in   Overcast
3:48 PM 42.8 °F 38.0 °F 42.8 °F 100% 29.60 in 2.0 mi ENE 8.1 mph - 0.00 in   Overcast
3:52 PM 42.1 °F 37.1 °F 42.1 °F 100% 29.61 in 1.8 mi ENE 8.1 mph - 0.00 in   Overcast
4:50 PM 42.8 °F 40.1 °F 42.8 °F 100% 29.61 in 2.5 mi NE 4.6 mph - N/A   Overcast
4:52 PM 42.1 °F 39.2 °F 42.1 °F 100% 29.62 in 2.5 mi ENE 4.6 mph - N/A   Overcast
5:52 PM 43.0 °F - 42.1 °F 97% 29.62 in 2.5 mi Calm Calm - N/A   Overcast
6:12 PM 42.8 °F 41.1 °F 42.8 °F 100% 29.61 in 1.8 mi NNW 3.5 mph - N/A   Overcast
6:52 PM 42.1 °F 40.2 °F 42.1 °F 100% 29.62 in 1.8 mi NNE 3.5 mph - N/A   Overcast
7:41 PM 42.8 °F - 42.8 °F 100% 29.59 in 3.0 mi Calm Calm - N/A   Overcast
7:52 PM 42.1 °F - 42.1 °F 100% 29.60 in 4.0 mi Calm Calm - N/A   Overcast
8:11 PM 42.8 °F - 42.8 °F 100% 29.58 in 2.5 mi Calm Calm - N/A   Overcast
8:44 PM 42.8 °F - 41.0 °F 93% 29.59 in 1.8 mi Calm Calm - N/A   Overcast
8:52 PM 42.1 °F - 42.1 °F 100% 29.60 in 1.5 mi Calm Calm - N/A   Overcast
9:08 PM 42.8 °F - 41.0 °F 93% 29.58 in 2.5 mi Calm Calm - 0.00 in Rain Light Rain
9:20 PM 42.8 °F - 41.0 °F 93% 29.58 in 3.0 mi Calm Calm - 0.00 in   Overcast
9:32 PM 42.8 °F - 42.8 °F 100% 29.58 in 4.0 mi Calm Calm - 0.00 in   Overcast
9:41 PM 42.8 °F - 41.0 °F 93% 29.58 in 3.0 mi Calm Calm - 0.00 in   Overcast
9:47 PM 42.8 °F 41.1 °F 41.0 °F 93% 29.58 in 4.0 mi North 3.5 mph - 0.00 in   Overcast
9:52 PM 42.1 °F - 41.0 °F 96% 29.60 in 4.0 mi Calm Calm - 0.00 in   Overcast
10:25 PM 42.8 °F - 42.8 °F 100% 29.59 in 1.8 mi Calm Calm - N/A   Overcast
10:44 PM 42.8 °F 41.1 °F 42.8 °F 100% 29.59 in 2.5 mi Variable 3.5 mph - 0.00 in   Overcast
10:52 PM 43.0 °F 38.2 °F 42.1 °F 97% 29.61 in 6.0 mi WSW 8.1 mph - 0.00 in   Overcast
11:22 PM 42.8 °F 37.5 °F 39.2 °F 87% 29.59 in 10.0 mi WSW 9.2 mph 17.3 mph N/A   Overcast
11:52 PM 41.0 °F 34.7 °F 39.0 °F 93% 29.61 in 9.0 mi West 10.4 mph - N/A   Overcast